Location: Hains Lake
(37.8540°N, 99.8578°W)
Time: 04:39:52
(UTC+00:00)

Tiros 1 despin weight - Pass Details

Date: 19 April 2021
Orbit: 593 x 642 km, 48.2° (Epoch: 07 May)

Event Time Altitude Azimuth Distance (km) Brightness Sun altitude
Rises 13:15:52 0° 267° (W) 2,902 ? 14.3°
Reaches altitude 10° 13:18:25 10° 278° (W) 1,988 ? 14.8°
Maximum altitude 13:22:29 31° 341° (NNW) 1,082 ? 15.6°
Drops below altitude 10° 13:26:31 10° 45° (NE) 1,963 ? 16.4°
Sets 13:29:01 0° 55° (NE) 2,859 ? 16.9°
